Torna al catalogo

STARLINK-34082

AttivoComunicazioniVLEO
NORAD 64100·PAYLOAD·🇺🇸 United States

Lanciato May 23, 2025 da Vandenberg Space Force Base

Loading…

Prossimi Passaggi (prossime 24 ore)

TLE

AggiornatoSource: CelesTrak SupGP

Epoca: Sep 14, 2026, 22:58 UTC

1 64100C 25110E   26257.95743056  .00013264  00000+0  39144-3 0  2577
2 64100  53.1578 227.2840 0001256  94.8196 320.8605 15.34419862    16

Traccia STARLINK-34082 in tempo reale con AllMySat

Download on the App Store